This demonstration page uses our WeatherBlox Daily Observations layout. Learn more.

Hourly Observations for May 11, 2020

Temp ( °F °C ) Dew Point ( °F °C ) Humidity (%) Winds ( mph kmh ) Pressure ( in mb ) Visibility ( mi km ) Precip ( " mm )
12:15 am 00:15 Clear 45 7 41 5 87 87 SSW 3 6 29.96 1015 10 16.0934 0 0
12:35 am 00:35 Clear 45 7 41 5 87 87 SSW 3 6 29.95 1014 10 16.0934 0 0
12:55 am 00:55 Clear 48 9 37 3 66 66 SSW 3 6 29.94 1014 10 16.0934 0 0
1:15 am 01:15 Clear 43 6 37 3 81 81 WSW 3 6 29.94 1014 10 16.0934 0 0
1:35 am 01:35 Clear 43 6 39 4 87 87 WSW 3 6 29.94 1014 10 16.0934 0 0
1:55 am 01:55 Clear 45 7 39 4 81 81 W 3 6 29.94 1014 10 16.0934 0 0
2:15 am 02:15 Clear 48 9 39 4 71 71 Calm 29.93 1013 10 16.0934 0 0
2:35 am 02:35 Clear 48 9 39 4 71 71 Calm 29.91 1013 10 16.0934 0 0
2:55 am 02:55 Partly Cloudy 45 7 41 5 87 87 W 5 7 29.93 1014 10 16.0934 0 0
3:15 am 03:15 Partly Cloudy 45 7 41 5 87 87 W 6 9 29.92 1013 10 16.0934 0 0
3:35 am 03:35 Clear 46 8 41 5 82 82 NNW 12 19 29.93 1014 10 16.0934 0 0
3:55 am 03:55 Partly Cloudy 50 10 43 6 76 76 WNW 5 7 29.92 1013 10 16.0934 0 0
4:15 am 04:15 Mostly Cloudy 52 11 41 5 67 67 NNW 3 6 29.9 1013 10 16.0934 0 0
4:35 am 04:35 Cloudy 50 10 43 6 76 76 NW 7 11 29.91 1013 10 16.0934 0 0
4:55 am 04:55 Cloudy 52 11 43 6 72 72 W 3 6 29.92 1013 10 16.0934 0 0
5:15 am 05:15 Cloudy 52 11 43 6 72 72 W 8 13 29.92 1013 10 16.0934 0 0
5:35 am 05:35 Cloudy 50 10 45 7 82 82 WNW 7 11 29.92 1013 10 16.0934 0 0
5:55 am 05:55 Cloudy 50 10 45 7 82 82 Calm 29.91 1013 10 16.0934 0 0
6:15 am 06:15 Partly Cloudy 46 8 45 7 93 93 W 3 6 29.93 1014 10 16.0934 0 0
6:35 am 06:35 Partly Cloudy 45 7 43 6 93 93 W 3 6 29.94 1014 10 16.0934 0 0
6:55 am 06:55 Partly Cloudy 46 8 45 7 93 93 WNW 3 6 29.95 1014 10 16.0934 0 0
7:15 am 07:15 Partly Cloudy 46 8 45 7 93 93 WNW 7 11 29.95 1014 10 16.0934 0 0
7:35 am 07:35 Mostly Cloudy 50 10 43 6 76 76 WNW 10 17 29.96 1014 10 16.0934 0 0
7:55 am 07:55 Mostly Cloudy 50 10 43 6 76 76 WNW 12 19 29.96 1014 10 16.0934 0 0
8:15 am 08:15 Partly Cloudy 52 11 43 6 72 72 WNW 9 15 29.95 1014 10 16.0934 0 0
8:35 am 08:35 Cloudy 52 11 41 5 67 67 WNW 14 22 29.96 1015 10 16.0934 0 0
8:55 am 08:55 Cloudy 54 12 41 5 63 63 W 12 19 29.95 1014 10 16.0934 0 0
9:15 am 09:15 Mostly Cloudy 54 12 41 5 63 63 W 10 17 29.95 1014 10 16.0934 0 0
9:35 am 09:35 Partly Cloudy 54 12 37 3 54 54 WNW 20 31 29.95 1014 10 16.0934 0 0
9:55 am 09:55 Mostly Cloudy 52 11 36 2 54 54 WNW 17 28 29.96 1015 10 16.0934 0 0
10:15 am 10:15 Cloudy 55 13 37 3 51 51 W 16 26 29.96 1015 10 16.0934 0 0
10:35 am 10:35 Cloudy 54 12 36 2 51 51 WNW 13 20 29.96 1015 10 16.0934 0 0
10:55 am 10:55 Cloudy 55 13 36 2 47 47 WNW 15 24 29.95 1014 10 16.0934 0 0
11:15 am 11:15 Partly Cloudy 57 14 36 2 44 44 NW 21 33 29.95 1014 10 16.0934 0 0
11:35 am 11:35 Mostly Cloudy 55 13 36 2 47 47 NW 14 22 29.95 1014 10 16.0934 0 0
11:55 am 11:55 Cloudy 54 12 34 1 47 47 WNW 16 26 29.95 1014 10 16.0934 0 0
12:15 pm 12:15 Cloudy 54 12 36 2 51 51 WNW 14 22 29.95 1014 10 16.0934 0 0
12:35 pm 12:35 Cloudy 55 13 37 3 51 51 NW 15 24 29.96 1015 10 16.0934 0 0
12:55 pm 12:55 Mostly Cloudy 55 13 37 3 51 51 W 14 22 29.96 1015 10 16.0934 0 0
1:15 pm 13:15 Cloudy 55 13 37 3 51 51 WNW 15 24 29.96 1015 10 16.0934 0 0
1:35 pm 13:35 Cloudy 55 13 37 3 51 51 WNW 20 31 29.96 1015 10 16.0934 0 0
1:55 pm 13:55 Mostly Cloudy 57 14 36 2 44 44 WNW 25 41 29.97 1015 10 16.0934 0 0
2:15 pm 14:15 Cloudy 57 14 36 2 44 44 WNW 23 37 29.98 1015 10 16.0934 0 0
2:35 pm 14:35 Cloudy 55 13 36 2 47 47 NW 18 30 29.98 1015 10 16.0934 0 0
2:55 pm 14:55 Cloudy 54 12 36 2 51 51 NW 23 37 29.99 1016 10 16.0934 0 0
3:15 pm 15:15 Cloudy 54 12 36 2 51 51 WNW 24 39 29.99 1016 10 16.0934 0 0
3:35 pm 15:35 Cloudy 54 12 36 2 51 51 NW 17 28 30 1016 10 16.0934 0 0
3:55 pm 15:55 Mostly Cloudy 55 13 36 2 47 47 NW 26 43 29.99 1016 10 16.0934 0 0
4:15 pm 16:15 Mostly Cloudy 54 12 34 1 47 47 WNW 23 37 30 1016 10 16.0934 0 0
4:35 pm 16:35 Cloudy 55 13 36 2 47 47 WNW 23 37 30 1016 10 16.0934 0 0
4:55 pm 16:55 Mostly Cloudy 54 12 36 2 51 51 NW 25 41 30 1016 10 16.0934 0 0
5:15 pm 17:15 Mostly Cloudy 52 11 36 2 54 54 NW 24 39 30 1016 10 16.0934 0 0
5:35 pm 17:35 Cloudy 54 12 36 2 51 51 WNW 18 30 30.02 1017 10 16.0934 0 0
5:55 pm 17:55 Cloudy 54 12 36 2 51 51 WNW 18 30 30.02 1017 10 16.0934 0 0
6:15 pm 18:15 Cloudy 54 12 36 2 51 51 NW 9 15 30.02 1017 10 16.0934 0 0
6:35 pm 18:35 Partly Cloudy 52 11 36 2 54 54 WNW 18 30 30.03 1017 10 16.0934 0 0
6:55 pm 18:55 Mostly Cloudy 50 10 36 2 58 58 WNW 25 41 30.05 1017 10 16.0934 0 0
7:15 pm 19:15 Partly Cloudy 50 10 36 2 58 58 WNW 25 41 30.06 1018 10 16.0934 0 0
7:35 pm 19:35 Partly Cloudy 46 8 36 2 66 66 WNW 25 41 30.07 1018 10 16.0934 0 0
7:55 pm 19:55 Cloudy 46 8 36 2 66 66 WNW 17 28 30.08 1019 10 16.0934 0 0
8:15 pm 20:15 Cloudy 46 8 34 1 62 62 NW 22 35 30.09 1019 10 16.0934 0 0
8:35 pm 20:35 Cloudy 46 8 34 1 62 62 WNW 22 35 30.09 1019 10 16.0934 0 0
8:55 pm 20:55 Cloudy 45 7 34 1 66 66 WNW 16 26 30.1 1019 10 16.0934 0 0
9:15 pm 21:15 Mostly Cloudy 45 7 34 1 66 66 NW 16 26 30.11 1020 10 16.0934 0 0
9:35 pm 21:35 Cloudy 45 7 34 1 66 66 WNW 14 22 30.12 1020 10 16.0934 0 0
9:55 pm 21:55 Cloudy 45 7 34 1 66 66 WNW 16 26 30.13 1020 10 16.0934 0 0
10:15 pm 22:15 Cloudy 45 7 32 0 61 61 WNW 20 31 30.13 1020 10 16.0934 0 0
10:35 pm 22:35 Cloudy 45 7 32 0 61 61 WNW 18 30 30.14 1021 10 16.0934 0 0
10:55 pm 22:55 Cloudy 45 7 34 1 66 66 WNW 12 19 30.14 1021 10 16.0934 0 0
11:15 pm 23:15 Mostly Cloudy 45 7 34 1 66 66 WNW 10 17 30.14 1021 10 16.0934 0 0
11:35 pm 23:35 Cloudy 45 7 34 1 66 66 WNW 12 19 30.14 1021 10 16.0934 0 0
11:55 pm 23:55 Cloudy 45 7 34 1 66 66 WNW 10 17 30.13 1020 10 16.0934 0 0

Powered by AerisWeather